MTN7401 KFLL-KSAV

Flight info

Callsign MTN7401
Flight time 2h 33m
Altitude 6000
Route DORRL2 ONEWY Q87 VIYAP/N0179F070
Aircraft C208/L-SDFGR/C

Departure

Time 2026-05-07 23:25
Airport Fort Lauderdale Hollywood International Airport (KFLL)

Arrival

Time 2026-05-08 01:59
Airport Savannah Hilton Head International Airport (KSAV)
Time Latitude Longitude Altitude Speed Heading
2026-05-07 22:58 26.07909 -80.15639 14 ft 0 kts
2026-05-07 23:19 26.07939 -80.15677 14 ft 10 kts 231°
2026-05-07 23:19 26.07842 -80.15693 13 ft 15 kts 182°
2026-05-07 23:20 26.07813 -80.15787 13 ft 21 kts 268°
2026-05-07 23:20 26.07815 -80.15981 16 ft 27 kts 267°
2026-05-07 23:20 26.07816 -80.16149 17 ft 17 kts 275°
2026-05-07 23:20 26.07818 -80.16250 17 ft 12 kts 267°
2026-05-07 23:21 26.07808 -80.16367 16 ft 20 kts 271°
2026-05-07 23:21 26.07797 -80.16552 16 ft 23 kts 283°
2026-05-07 23:21 26.07796 -80.16622 15 ft 0 kts 231°
2026-05-07 23:23 26.07771 -80.16640 15 ft 14 kts 194°
2026-05-07 23:23 26.07695 -80.16614 14 ft 1 kts 91°
2026-05-07 23:23 26.07695 -80.16613 14 ft 0 kts 91°
2026-05-07 23:24 26.07695 -80.16612 14 ft 2 kts 91°
2026-05-07 23:24 26.07690 -80.16443 18 ft 45 kts 90°
2026-05-07 23:24 26.07690 -80.15952 16 ft 80 kts 88°
2026-05-07 23:24 26.07690 -80.15273 72 ft 92 kts 97°
2026-05-07 23:25 26.07677 -80.14544 175 ft 94 kts 98°
2026-05-07 23:25 26.07668 -80.13819 321 ft 92 kts 99°
2026-05-07 23:25 26.07636 -80.13087 461 ft 98 kts 99°
2026-05-07 23:25 26.07579 -80.12368 611 ft 98 kts 101°
2026-05-07 23:26 26.07526 -80.11626 794 ft 92 kts 99°
2026-05-07 23:26 26.07444 -80.10952 967 ft 87 kts 102°
2026-05-07 23:26 26.07363 -80.10298 1146 ft 85 kts 99°
2026-05-07 23:26 26.07264 -80.09596 1304 ft 98 kts 102°
2026-05-07 23:27 26.07030 -80.07925 1678 ft 115 kts 102°
2026-05-07 23:27 26.06906 -80.07030 1859 ft 118 kts 101°
2026-05-07 23:27 26.06774 -80.06112 1994 ft 126 kts 101°
2026-05-07 23:28 26.06620 -80.05111 2012 ft 137 kts 102°
2026-05-07 23:28 26.06452 -80.04035 2010 ft 145 kts 102°
2026-05-07 23:28 26.06276 -80.02908 2001 ft 150 kts 102°
2026-05-07 23:28 26.06170 -80.01751 1990 ft 154 kts 83°
2026-05-07 23:29 26.06771 -80.00789 1985 ft 160 kts 32°
2026-05-07 23:29 26.07853 -80.00551 1989 ft 163 kts 353°
2026-05-07 23:29 26.08907 -80.01015 1999 ft 164 kts 335°
2026-05-07 23:29 26.09936 -80.01560 2023 ft 163 kts 335°
2026-05-07 23:30 26.10919 -80.02075 2251 ft 151 kts 335°
2026-05-07 23:30 26.11840 -80.02557 2483 ft 142 kts 335°
2026-05-07 23:30 26.12724 -80.03013 2717 ft 137 kts 335°
2026-05-07 23:30 26.13557 -80.03489 2941 ft 133 kts 320°
2026-05-07 23:31 26.14031 -80.04325 3168 ft 128 kts 290°
2026-05-07 23:31 26.14509 -80.05147 3410 ft 127 kts 308°
2026-05-07 23:31 26.15053 -80.05911 3656 ft 125 kts 307°
2026-05-07 23:31 26.15595 -80.06664 3896 ft 124 kts 308°
2026-05-07 23:32 26.16133 -80.07400 4130 ft 121 kts 308°
2026-05-07 23:32 26.16640 -80.08103 4366 ft 118 kts 308°
2026-05-07 23:32 26.17145 -80.08798 4607 ft 116 kts 308°
2026-05-07 23:32 26.17649 -80.09489 4831 ft 114 kts 308°
2026-05-07 23:33 26.18152 -80.10179 4994 ft 120 kts 308°
2026-05-07 23:33 26.18713 -80.10944 5009 ft 128 kts 308°
2026-05-07 23:33 26.19248 -80.11679 4996 ft 117 kts 308°
2026-05-07 23:33 26.19684 -80.12284 4991 ft 114 kts 308°
2026-05-07 23:34 26.20065 -80.12807 4988 ft 113 kts 308°
2026-05-07 23:34 26.20507 -80.13414 4991 ft 112 kts 309°
2026-05-07 23:34 26.20987 -80.14068 4989 ft 108 kts 309°
2026-05-07 23:34 26.21448 -80.14704 4993 ft 103 kts 308°
2026-05-07 23:35 26.21897 -80.15316 4990 ft 101 kts 309°
2026-05-07 23:35 26.22364 -80.15957 5008 ft 115 kts 308°
2026-05-07 23:35 26.22903 -80.16688 5014 ft 129 kts 309°
2026-05-07 23:35 26.23498 -80.17490 5013 ft 139 kts 308°
2026-05-07 23:36 26.24126 -80.18347 5015 ft 147 kts 309°
2026-05-07 23:36 26.24784 -80.19241 5011 ft 152 kts 309°
2026-05-07 23:36 26.25455 -80.20159 5010 ft 153 kts 308°
2026-05-07 23:36 26.26127 -80.21085 5011 ft 154 kts 308°
2026-05-07 23:37 26.26804 -80.22013 5006 ft 154 kts 308°
2026-05-07 23:37 26.27482 -80.22942 5007 ft 155 kts 308°
2026-05-07 23:37 26.28160 -80.23874 5005 ft 155 kts 308°
2026-05-07 23:37 26.28838 -80.24806 5003 ft 154 kts 308°
2026-05-07 23:38 26.29523 -80.25748 5005 ft 155 kts 308°
2026-05-07 23:38 26.30202 -80.26675 5001 ft 155 kts 308°
2026-05-07 23:38 26.30881 -80.27608 5003 ft 155 kts 308°
2026-05-07 23:38 26.31559 -80.28540 5002 ft 154 kts 308°
2026-05-07 23:39 26.32224 -80.29452 4999 ft 153 kts 308°
2026-05-07 23:39 26.32893 -80.30370 5004 ft 153 kts 308°
2026-05-07 23:39 26.33574 -80.31305 4993 ft 153 kts 308°
2026-05-07 23:39 26.34233 -80.32214 5011 ft 153 kts 308°
2026-05-07 23:40 26.34904 -80.33137 5004 ft 154 kts 308°
2026-05-07 23:40 26.35579 -80.34059 5004 ft 154 kts 308°
2026-05-07 23:40 26.36254 -80.34982 5005 ft 153 kts 310°
2026-05-07 23:40 26.37173 -80.35604 4994 ft 158 kts 346°
2026-05-07 23:41 26.38264 -80.35656 5007 ft 159 kts 356°
2026-05-07 23:41 26.39371 -80.35703 5007 ft 159 kts 353°
2026-05-07 23:41 26.40477 -80.35791 5000 ft 159 kts 353°
2026-05-07 23:41 26.41582 -80.35879 5001 ft 159 kts 353°
2026-05-07 23:42 26.42686 -80.35968 5008 ft 159 kts 353°
2026-05-07 23:42 26.43798 -80.36057 5002 ft 161 kts 352°
2026-05-07 23:42 26.44917 -80.36149 5001 ft 161 kts 352°
2026-05-07 23:42 26.46035 -80.36244 5009 ft 162 kts 352°
2026-05-07 23:43 26.47157 -80.36335 5004 ft 162 kts 352°
2026-05-07 23:43 26.48278 -80.36427 5002 ft 162 kts 352°
2026-05-07 23:43 26.49401 -80.36518 5000 ft 162 kts 352°
2026-05-07 23:43 26.50524 -80.36609 4996 ft 161 kts 352°
2026-05-07 23:44 26.51644 -80.36681 5001 ft 162 kts 357°
2026-05-07 23:44 26.52766 -80.36687 5003 ft 161 kts 354°
2026-05-07 23:44 26.53888 -80.36739 5006 ft 162 kts 354°
2026-05-07 23:44 26.55014 -80.36775 4999 ft 162 kts 355°
2026-05-07 23:45 26.56145 -80.36802 5001 ft 162 kts 355°
2026-05-07 23:45 26.57273 -80.36831 4999 ft 162 kts 355°
2026-05-07 23:45 26.58405 -80.36860 4998 ft 163 kts 355°
2026-05-07 23:45 26.59534 -80.36889 4995 ft 162 kts 355°
2026-05-07 23:46 26.60662 -80.36917 4996 ft 162 kts 355°
2026-05-07 23:46 26.61785 -80.36944 4992 ft 162 kts 356°
2026-05-07 23:46 26.62910 -80.36973 4992 ft 162 kts 355°
2026-05-07 23:46 26.64041 -80.37004 4993 ft 163 kts 355°
2026-05-07 23:47 26.65173 -80.37031 4995 ft 163 kts 355°
2026-05-07 23:47 26.66303 -80.37060 4992 ft 162 kts 355°
2026-05-07 23:47 26.67432 -80.37089 4990 ft 163 kts 354°
2026-05-07 23:47 26.68571 -80.37117 4993 ft 164 kts 354°
2026-05-07 23:48 26.69709 -80.37157 4994 ft 163 kts 352°
2026-05-07 23:48 26.70779 -80.37497 4991 ft 159 kts 334°
2026-05-07 23:48 26.71804 -80.37969 4989 ft 159 kts 335°
2026-05-07 23:48 26.72842 -80.38411 4984 ft 160 kts 336°
2026-05-07 23:49 26.73884 -80.38850 4990 ft 160 kts 336°
2026-05-07 23:49 26.74927 -80.39287 4989 ft 160 kts 336°
2026-05-07 23:49 26.75969 -80.39724 4984 ft 159 kts 336°
2026-05-07 23:49 26.77004 -80.40157 4984 ft 159 kts 336°
2026-05-07 23:50 26.78043 -80.40596 4982 ft 159 kts 337°
2026-05-07 23:50 26.78729 -80.40883 4981 ft 159 kts 337°
2026-05-07 23:50 26.80109 -80.41465 4982 ft 159 kts 336°
2026-05-07 23:50 26.80810 -80.41759 4983 ft 159 kts 336°
2026-05-07 23:51 26.81835 -80.42189 4981 ft 159 kts 336°
2026-05-07 23:51 26.82886 -80.42630 4981 ft 160 kts 337°
2026-05-07 23:51 26.83926 -80.43067 4978 ft 159 kts 336°
2026-05-07 23:51 26.84965 -80.43505 4977 ft 160 kts 336°
2026-05-07 23:52 26.86006 -80.43943 4976 ft 160 kts 337°
2026-05-07 23:52 26.87050 -80.44382 4976 ft 161 kts 336°
2026-05-07 23:52 26.88097 -80.44822 4978 ft 161 kts 336°
2026-05-07 23:52 26.89141 -80.45262 4976 ft 161 kts 336°
2026-05-07 23:53 26.90186 -80.45703 4980 ft 161 kts 337°
2026-05-07 23:53 26.91234 -80.46144 4982 ft 161 kts 336°
2026-05-07 23:53 26.92286 -80.46587 4978 ft 161 kts 336°
2026-05-07 23:53 26.93334 -80.47029 4977 ft 161 kts 336°
2026-05-07 23:54 26.94379 -80.47470 4976 ft 160 kts 336°
2026-05-07 23:54 26.95422 -80.47909 4976 ft 160 kts 337°
2026-05-07 23:54 26.96464 -80.48347 4979 ft 160 kts 336°
2026-05-07 23:54 26.97490 -80.48780 4979 ft 160 kts 337°
2026-05-07 23:55 26.98545 -80.49225 4978 ft 160 kts 336°
2026-05-07 23:55 26.99571 -80.49658 4975 ft 160 kts 336°
2026-05-07 23:55 27.00627 -80.50103 4980 ft 160 kts 336°
2026-05-07 23:55 27.01669 -80.50543 4975 ft 160 kts 336°
2026-05-07 23:56 27.02713 -80.50984 4981 ft 160 kts 337°
2026-05-07 23:56 27.03756 -80.51424 4978 ft 161 kts 336°
2026-05-07 23:56 27.04804 -80.51867 4979 ft 161 kts 337°
2026-05-07 23:56 27.05851 -80.52309 4977 ft 161 kts 337°
2026-05-07 23:57 27.06899 -80.52751 4976 ft 160 kts 336°
2026-05-07 23:57 27.07944 -80.53193 4975 ft 161 kts 336°
2026-05-07 23:57 27.08995 -80.53637 4979 ft 161 kts 336°
2026-05-07 23:57 27.10046 -80.54081 4981 ft 161 kts 336°
2026-05-07 23:58 27.11095 -80.54524 4976 ft 161 kts 336°
2026-05-07 23:58 27.12146 -80.54969 4975 ft 161 kts 336°
2026-05-07 23:58 27.13196 -80.55413 4969 ft 161 kts 336°
2026-05-07 23:58 27.14243 -80.55856 4970 ft 161 kts 336°
2026-05-07 23:59 27.15278 -80.56294 4971 ft 162 kts 336°
2026-05-07 23:59 27.16329 -80.56738 4972 ft 161 kts 336°
2026-05-07 23:59 27.17367 -80.57178 4970 ft 161 kts 336°
2026-05-07 23:59 27.18416 -80.57622 4973 ft 162 kts 336°
2026-05-08 00:00 27.19467 -80.58067 4976 ft 161 kts 336°
2026-05-08 00:00 27.20504 -80.58506 4972 ft 162 kts 336°
2026-05-08 00:00 27.21567 -80.58956 4979 ft 161 kts 336°
2026-05-08 00:00 27.22618 -80.59402 4974 ft 161 kts 336°
2026-05-08 00:01 27.23667 -80.59840 4969 ft 161 kts 337°
2026-05-08 00:01 27.24709 -80.60271 4966 ft 160 kts 337°
2026-05-08 00:01 27.25752 -80.60704 4966 ft 160 kts 338°
2026-05-08 00:01 27.26795 -80.61137 4967 ft 160 kts 337°
2026-05-08 00:02 27.27842 -80.61573 4971 ft 160 kts 337°
2026-05-08 00:02 27.28882 -80.62005 4971 ft 160 kts 337°
2026-05-08 00:02 27.29930 -80.62441 4973 ft 160 kts 337°
2026-05-08 00:02 27.30962 -80.62870 4973 ft 161 kts 337°
2026-05-08 00:03 27.32014 -80.63307 4973 ft 161 kts 337°
2026-05-08 00:03 27.33061 -80.63744 4973 ft 160 kts 337°
2026-05-08 00:03 27.34085 -80.64170 4971 ft 161 kts 337°
2026-05-08 00:03 27.35149 -80.64612 4976 ft 161 kts 337°
2026-05-08 00:04 27.36204 -80.65051 4973 ft 162 kts 337°
2026-05-08 00:04 27.37257 -80.65490 4975 ft 162 kts 337°
2026-05-08 00:04 27.38301 -80.65924 4969 ft 161 kts 337°
2026-05-08 00:04 27.39351 -80.66363 4972 ft 161 kts 337°
2026-05-08 00:05 27.40402 -80.66802 4975 ft 161 kts 337°
2026-05-08 00:05 27.41457 -80.67239 4976 ft 161 kts 337°
2026-05-08 00:05 27.42510 -80.67679 4968 ft 161 kts 337°
2026-05-08 00:05 27.43562 -80.68118 4965 ft 161 kts 337°
2026-05-08 00:06 27.44612 -80.68555 4966 ft 161 kts 338°
2026-05-08 00:06 27.45663 -80.68994 4964 ft 161 kts 338°
2026-05-08 00:06 27.46712 -80.69432 4963 ft 161 kts 337°
2026-05-08 00:06 27.47763 -80.69870 4965 ft 161 kts 337°
2026-05-08 00:07 27.48811 -80.70308 4968 ft 161 kts 337°
2026-05-08 00:07 27.49857 -80.70743 4966 ft 160 kts 337°
2026-05-08 00:07 27.50902 -80.71181 4964 ft 161 kts 337°
2026-05-08 00:07 27.51951 -80.71619 4966 ft 160 kts 338°
2026-05-08 00:08 27.52999 -80.72056 4965 ft 161 kts 337°
2026-05-08 00:08 27.54048 -80.72495 4967 ft 161 kts 337°
2026-05-08 00:08 27.55099 -80.72935 4967 ft 161 kts 338°
2026-05-08 00:08 27.56134 -80.73366 4965 ft 161 kts 338°
2026-05-08 00:09 27.57185 -80.73806 4965 ft 161 kts 338°
2026-05-08 00:09 27.58231 -80.74244 4969 ft 161 kts 338°
2026-05-08 00:09 27.59278 -80.74682 4976 ft 160 kts 338°
2026-05-08 00:09 27.60325 -80.75119 4972 ft 160 kts 338°
2026-05-08 00:10 27.61373 -80.75558 4974 ft 161 kts 338°
2026-05-08 00:10 27.62419 -80.75996 4974 ft 161 kts 338°
2026-05-08 00:10 27.63471 -80.76432 4972 ft 161 kts 340°
2026-05-08 00:10 27.64540 -80.76816 4975 ft 161 kts 338°
2026-05-08 00:11 27.65593 -80.77263 4971 ft 162 kts 338°
2026-05-08 00:11 27.66655 -80.77695 4974 ft 162 kts 338°
2026-05-08 00:11 27.67721 -80.78118 4976 ft 163 kts 338°
2026-05-08 00:11 27.68790 -80.78542 4972 ft 163 kts 338°
2026-05-08 00:12 27.69859 -80.78966 4976 ft 163 kts 339°
2026-05-08 00:12 27.70931 -80.79390 4971 ft 163 kts 339°
2026-05-08 00:12 27.72002 -80.79815 4969 ft 163 kts 338°
2026-05-08 00:12 27.73066 -80.80238 4967 ft 162 kts 339°
2026-05-08 00:13 27.74144 -80.80665 4968 ft 162 kts 339°
2026-05-08 00:13 27.75203 -80.81085 4963 ft 161 kts 339°
2026-05-08 00:13 27.76261 -80.81505 4964 ft 161 kts 339°
2026-05-08 00:13 27.77319 -80.81924 4964 ft 161 kts 338°
2026-05-08 00:14 27.78379 -80.82345 4964 ft 162 kts 338°
2026-05-08 00:14 27.79440 -80.82768 4964 ft 162 kts 339°
2026-05-08 00:14 27.80502 -80.83189 4964 ft 162 kts 339°
2026-05-08 00:14 27.81568 -80.83612 4964 ft 163 kts 339°
2026-05-08 00:15 27.82635 -80.84036 4965 ft 162 kts 339°
2026-05-08 00:15 27.83702 -80.84460 4966 ft 163 kts 339°
2026-05-08 00:15 27.84767 -80.84884 4965 ft 162 kts 338°
2026-05-08 00:15 27.85831 -80.85307 4963 ft 162 kts 338°
2026-05-08 00:16 27.86897 -80.85731 4965 ft 162 kts 339°
2026-05-08 00:16 27.87952 -80.86151 4967 ft 162 kts 339°
2026-05-08 00:16 27.89017 -80.86575 4967 ft 162 kts 338°
2026-05-08 00:16 27.90083 -80.86998 4966 ft 162 kts 339°
2026-05-08 00:17 27.91145 -80.87421 4964 ft 162 kts 338°
2026-05-08 00:17 27.92208 -80.87844 4960 ft 162 kts 338°
2026-05-08 00:17 27.93270 -80.88267 4959 ft 162 kts 339°
2026-05-08 00:17 27.94334 -80.88692 4963 ft 163 kts 339°
2026-05-08 00:18 27.95400 -80.89116 4962 ft 163 kts 338°
2026-05-08 00:18 27.96468 -80.89541 4964 ft 162 kts 339°
2026-05-08 00:18 27.97531 -80.89966 4963 ft 162 kts 338°
2026-05-08 00:18 27.98593 -80.90388 4963 ft 162 kts 338°
2026-05-08 00:19 27.99654 -80.90811 4965 ft 162 kts 338°
2026-05-08 00:19 28.00715 -80.91234 4965 ft 162 kts 338°
2026-05-08 00:19 28.01778 -80.91658 4967 ft 162 kts 338°
2026-05-08 00:19 28.02841 -80.92082 4966 ft 162 kts 338°
2026-05-08 00:20 28.03898 -80.92504 4968 ft 160 kts 338°
2026-05-08 00:20 28.04952 -80.92926 4964 ft 161 kts 338°
2026-05-08 00:20 28.06007 -80.93346 4965 ft 161 kts 338°
2026-05-08 00:20 28.07061 -80.93768 4967 ft 161 kts 338°
2026-05-08 00:21 28.08117 -80.94190 4967 ft 160 kts 338°
2026-05-08 00:21 28.09173 -80.94610 4963 ft 161 kts 338°
2026-05-08 00:21 28.10165 -80.95006 4968 ft 161 kts 338°
2026-05-08 00:21 28.11221 -80.95428 4970 ft 161 kts 339°
2026-05-08 00:22 28.12280 -80.95852 4973 ft 162 kts 338°
2026-05-08 00:22 28.13345 -80.96279 4971 ft 162 kts 338°
2026-05-08 00:22 28.14407 -80.96702 4971 ft 162 kts 338°
2026-05-08 00:22 28.15466 -80.97127 4971 ft 161 kts 338°
2026-05-08 00:23 28.16525 -80.97550 4969 ft 162 kts 339°
2026-05-08 00:23 28.17586 -80.97975 4965 ft 162 kts 338°
2026-05-08 00:23 28.18651 -80.98399 4964 ft 163 kts 338°
2026-05-08 00:23 28.19718 -80.98825 4964 ft 163 kts 338°
2026-05-08 00:24 28.20785 -80.99253 4963 ft 162 kts 338°
2026-05-08 00:24 28.21847 -80.99680 4963 ft 162 kts 338°
2026-05-08 00:24 28.22906 -81.00104 4962 ft 161 kts 339°
2026-05-08 00:24 28.23965 -81.00527 4962 ft 161 kts 338°
2026-05-08 00:25 28.25023 -81.00954 4965 ft 163 kts 339°
2026-05-08 00:25 28.26091 -81.01380 4963 ft 163 kts 338°
2026-05-08 00:25 28.27158 -81.01810 4964 ft 163 kts 338°
2026-05-08 00:25 28.28227 -81.02238 4963 ft 163 kts 338°
2026-05-08 00:26 28.29294 -81.02662 4965 ft 162 kts 338°
2026-05-08 00:26 28.30356 -81.03090 4967 ft 162 kts 338°
2026-05-08 00:26 28.31421 -81.03519 4970 ft 163 kts 338°
2026-05-08 00:26 28.32492 -81.03947 4968 ft 163 kts 338°
2026-05-08 00:27 28.33563 -81.04378 4969 ft 163 kts 338°
2026-05-08 00:27 28.34634 -81.04807 4969 ft 163 kts 339°
2026-05-08 00:27 28.35703 -81.05235 4970 ft 162 kts 338°
2026-05-08 00:27 28.36786 -81.05611 4970 ft 164 kts 349°
2026-05-08 00:28 28.37924 -81.05740 4972 ft 165 kts 353°
2026-05-08 00:28 28.39064 -81.05880 4972 ft 165 kts 350°
2026-05-08 00:28 28.40207 -81.06032 4972 ft 165 kts 351°
2026-05-08 00:28 28.41356 -81.06178 4974 ft 166 kts 351°
2026-05-08 00:29 28.42508 -81.06325 4975 ft 166 kts 350°
2026-05-08 00:29 28.43654 -81.06472 4975 ft 166 kts 351°
2026-05-08 00:29 28.44803 -81.06619 4974 ft 166 kts 351°
2026-05-08 00:29 28.45948 -81.06764 4971 ft 165 kts 351°
2026-05-08 00:30 28.46687 -81.06858 4976 ft 166 kts 351°
2026-05-08 00:30 28.47836 -81.07006 4973 ft 166 kts 351°
2026-05-08 00:30 28.48981 -81.07150 4971 ft 167 kts 351°
2026-05-08 00:30 28.50521 -81.07349 4972 ft 166 kts 351°
2026-05-08 00:31 28.51295 -81.07450 4971 ft 166 kts 351°
2026-05-08 00:31 28.52445 -81.07598 4977 ft 167 kts 351°
2026-05-08 00:31 28.53573 -81.07741 4967 ft 167 kts 351°
2026-05-08 00:31 28.54737 -81.07894 4967 ft 168 kts 352°
2026-05-08 00:32 28.55914 -81.08041 4969 ft 167 kts 351°
2026-05-08 00:32 28.57075 -81.08191 4964 ft 167 kts 351°
2026-05-08 00:32 28.58229 -81.08341 4965 ft 167 kts 351°
2026-05-08 00:32 28.59387 -81.08487 4968 ft 168 kts 351°
2026-05-08 00:33 28.60554 -81.08639 4963 ft 169 kts 351°
2026-05-08 00:33 28.61721 -81.08787 4962 ft 168 kts 351°
2026-05-08 00:33 28.62884 -81.08934 4959 ft 168 kts 351°
2026-05-08 00:33 28.64045 -81.09085 4960 ft 168 kts 351°
2026-05-08 00:34 28.65209 -81.09237 4960 ft 168 kts 351°
2026-05-08 00:34 28.66365 -81.09386 4963 ft 168 kts 351°
2026-05-08 00:34 28.67522 -81.09531 4962 ft 167 kts 351°
2026-05-08 00:34 28.68679 -81.09681 4963 ft 168 kts 351°
2026-05-08 00:35 28.69849 -81.09835 4964 ft 170 kts 351°
2026-05-08 00:35 28.71021 -81.09981 4967 ft 170 kts 351°
2026-05-08 00:35 28.72198 -81.10131 4969 ft 170 kts 351°
2026-05-08 00:35 28.73369 -81.10284 4968 ft 170 kts 351°
2026-05-08 00:36 28.74543 -81.10438 4964 ft 170 kts 351°
2026-05-08 00:36 28.75729 -81.10592 4965 ft 169 kts 350°
2026-05-08 00:36 28.76896 -81.10737 4965 ft 169 kts 350°
2026-05-08 00:36 28.78061 -81.10886 4964 ft 169 kts 351°
2026-05-08 00:37 28.79227 -81.11038 4965 ft 169 kts 351°
2026-05-08 00:37 28.80396 -81.11188 4964 ft 169 kts 351°
2026-05-08 00:37 28.81568 -81.11338 4964 ft 170 kts 351°
2026-05-08 00:38 28.83919 -81.11645 4964 ft 170 kts 351°
2026-05-08 00:38 28.85094 -81.11794 4965 ft 170 kts 351°
2026-05-08 00:38 28.86267 -81.11947 4963 ft 169 kts 351°
2026-05-08 00:38 28.87430 -81.12096 4962 ft 168 kts 350°
2026-05-08 00:39 28.88590 -81.12246 4963 ft 167 kts 351°
2026-05-08 00:39 28.89744 -81.12396 4960 ft 167 kts 351°
2026-05-08 00:39 28.90901 -81.12545 4958 ft 167 kts 351°
2026-05-08 00:39 28.92057 -81.12694 4958 ft 167 kts 351°
2026-05-08 00:40 28.93211 -81.12843 4960 ft 167 kts 350°
2026-05-08 00:40 28.94372 -81.12996 4968 ft 168 kts 351°
2026-05-08 00:40 28.95540 -81.13144 4967 ft 169 kts 351°
2026-05-08 00:40 28.96707 -81.13293 4970 ft 169 kts 351°
2026-05-08 00:41 28.97876 -81.13445 4967 ft 169 kts 351°
2026-05-08 00:41 28.99047 -81.13597 4970 ft 169 kts 351°
2026-05-08 00:41 29.00217 -81.13749 4970 ft 169 kts 350°
2026-05-08 00:41 29.01381 -81.13900 4969 ft 168 kts 351°
2026-05-08 00:42 29.02529 -81.14048 4972 ft 168 kts 351°
2026-05-08 00:42 29.03703 -81.14199 4972 ft 168 kts 351°
2026-05-08 00:42 29.04864 -81.14349 4971 ft 168 kts 351°
2026-05-08 00:42 29.06028 -81.14501 4973 ft 168 kts 351°
2026-05-08 00:43 29.07191 -81.14651 4971 ft 168 kts 351°
2026-05-08 00:43 29.08357 -81.14801 4968 ft 169 kts 350°
2026-05-08 00:43 29.09521 -81.14952 4958 ft 169 kts 350°
2026-05-08 00:43 29.10690 -81.15104 4955 ft 169 kts 350°
2026-05-08 00:44 29.11857 -81.15255 4958 ft 168 kts 350°
2026-05-08 00:44 29.13020 -81.15406 4955 ft 168 kts 349°
2026-05-08 00:44 29.14178 -81.15557 4955 ft 168 kts 350°
2026-05-08 00:44 29.15338 -81.15707 4953 ft 167 kts 350°
2026-05-08 00:45 29.16492 -81.15858 4957 ft 167 kts 350°
2026-05-08 00:45 29.17644 -81.16007 4957 ft 166 kts 351°
2026-05-08 00:45 29.18789 -81.16155 4956 ft 166 kts 350°
2026-05-08 00:45 29.19940 -81.16304 4956 ft 166 kts 350°
2026-05-08 00:46 29.21088 -81.16453 4957 ft 166 kts 350°
2026-05-08 00:46 29.22236 -81.16603 4954 ft 166 kts 350°
2026-05-08 00:46 29.23389 -81.16753 4957 ft 167 kts 350°
2026-05-08 00:46 29.24544 -81.16902 4956 ft 167 kts 350°
2026-05-08 00:47 29.25702 -81.17053 4956 ft 167 kts 351°
2026-05-08 00:47 29.26860 -81.17204 4956 ft 168 kts 350°
2026-05-08 00:47 29.28020 -81.17354 4954 ft 168 kts 351°
2026-05-08 00:47 29.29182 -81.17506 4950 ft 168 kts 351°
2026-05-08 00:48 29.30339 -81.17656 4952 ft 168 kts 350°
2026-05-08 00:48 29.31502 -81.17807 4953 ft 168 kts 351°
2026-05-08 00:48 29.32657 -81.17958 4951 ft 168 kts 350°
2026-05-08 00:48 29.33817 -81.18109 4951 ft 168 kts 351°
2026-05-08 00:49 29.34976 -81.18260 4952 ft 167 kts 350°
2026-05-08 00:49 29.36131 -81.18410 4951 ft 167 kts 350°
2026-05-08 00:49 29.37283 -81.18560 4948 ft 167 kts 350°
2026-05-08 00:49 29.38418 -81.18708 4947 ft 166 kts 350°
2026-05-08 00:50 29.39543 -81.18855 4947 ft 167 kts 350°
2026-05-08 00:50 29.40731 -81.19010 4943 ft 167 kts 350°
2026-05-08 00:50 29.41867 -81.19158 4953 ft 167 kts 350°
2026-05-08 00:50 29.43016 -81.19307 4952 ft 167 kts 350°
2026-05-08 00:51 29.44171 -81.19458 4950 ft 167 kts 350°
2026-05-08 00:51 29.45328 -81.19610 4947 ft 167 kts 350°
2026-05-08 00:51 29.46484 -81.19760 4947 ft 167 kts 349°
2026-05-08 00:51 29.47640 -81.19912 4945 ft 167 kts 350°
2026-05-08 00:52 29.48778 -81.20060 4943 ft 167 kts 350°
2026-05-08 00:52 29.49890 -81.20205 4943 ft 167 kts 350°
2026-05-08 00:52 29.51044 -81.20356 4944 ft 167 kts 350°
2026-05-08 00:52 29.52199 -81.20507 4939 ft 167 kts 349°
2026-05-08 00:53 29.53352 -81.20658 4944 ft 167 kts 350°
2026-05-08 00:53 29.54504 -81.20808 4942 ft 167 kts 349°
2026-05-08 00:53 29.55674 -81.20961 4943 ft 167 kts 349°
2026-05-08 00:53 29.56825 -81.21111 4944 ft 167 kts 349°
2026-05-08 00:54 29.57976 -81.21262 4941 ft 166 kts 349°
2026-05-08 00:54 29.59126 -81.21413 4946 ft 167 kts 349°
2026-05-08 00:54 29.60278 -81.21563 4952 ft 166 kts 349°
2026-05-08 00:54 29.61415 -81.21713 4947 ft 166 kts 349°
2026-05-08 00:55 29.62577 -81.21864 4943 ft 166 kts 349°
2026-05-08 00:55 29.63726 -81.22015 4942 ft 166 kts 349°
2026-05-08 00:55 29.64857 -81.22162 4942 ft 166 kts 349°
2026-05-08 00:55 29.66021 -81.22315 4948 ft 165 kts 349°
2026-05-08 00:56 29.67163 -81.22465 4947 ft 165 kts 349°
2026-05-08 00:56 29.68306 -81.22615 4951 ft 166 kts 349°
2026-05-08 00:56 29.69448 -81.22764 4948 ft 165 kts 348°
2026-05-08 00:56 29.70588 -81.22915 4949 ft 165 kts 349°
2026-05-08 00:57 29.71731 -81.23064 4949 ft 166 kts 349°
2026-05-08 00:57 29.72874 -81.23214 4947 ft 165 kts 348°
2026-05-08 00:57 29.74014 -81.23364 4950 ft 166 kts 349°
2026-05-08 00:57 29.75166 -81.23514 4949 ft 165 kts 348°
2026-05-08 00:58 29.76308 -81.23665 4953 ft 165 kts 348°
2026-05-08 00:58 29.77453 -81.23815 4951 ft 166 kts 349°
2026-05-08 00:58 29.78601 -81.23966 4946 ft 166 kts 348°
2026-05-08 00:58 29.79746 -81.24117 4949 ft 166 kts 348°
2026-05-08 00:59 29.80886 -81.24266 4949 ft 165 kts 348°
2026-05-08 00:59 29.82018 -81.24415 4949 ft 165 kts 348°
2026-05-08 00:59 29.83155 -81.24564 4955 ft 164 kts 348°
2026-05-08 00:59 29.84285 -81.24713 4957 ft 164 kts 348°
2026-05-08 01:00 29.85422 -81.24863 4957 ft 165 kts 348°
2026-05-08 01:00 29.86560 -81.25012 4955 ft 165 kts 348°
2026-05-08 01:00 29.87699 -81.25163 4955 ft 165 kts 348°
2026-05-08 01:00 29.88839 -81.25313 4960 ft 165 kts 348°
2026-05-08 01:01 29.89981 -81.25463 4958 ft 165 kts 348°
2026-05-08 01:01 29.91119 -81.25613 4957 ft 164 kts 348°
2026-05-08 01:01 29.92253 -81.25762 4956 ft 165 kts 348°
2026-05-08 01:01 29.93391 -81.25912 4955 ft 164 kts 348°
2026-05-08 01:02 29.94527 -81.26062 4956 ft 164 kts 348°
2026-05-08 01:02 29.95662 -81.26211 4959 ft 164 kts 348°
2026-05-08 01:02 29.96793 -81.26360 4963 ft 164 kts 348°
2026-05-08 01:02 29.97926 -81.26507 4968 ft 163 kts 348°
2026-05-08 01:03 29.99056 -81.26654 4963 ft 164 kts 348°
2026-05-08 01:03 30.00186 -81.26803 4963 ft 164 kts 348°
2026-05-08 01:03 30.00907 -81.26898 4976 ft 164 kts 348°
2026-05-08 01:03 30.01559 -81.26984 4974 ft 164 kts 348°
2026-05-08 01:04 30.02690 -81.27131 4971 ft 164 kts 348°
2026-05-08 01:04 30.03834 -81.27282 4965 ft 163 kts 347°
2026-05-08 01:04 30.04959 -81.27432 4967 ft 162 kts 347°
2026-05-08 01:04 30.05702 -81.27530 4970 ft 162 kts 347°
2026-05-08 01:05 30.07192 -81.27728 4966 ft 163 kts 347°
2026-05-08 01:05 30.08318 -81.27876 4962 ft 163 kts 348°
2026-05-08 01:05 30.09077 -81.27976 4961 ft 163 kts 347°
2026-05-08 01:05 30.10198 -81.28125 4961 ft 162 kts 347°
2026-05-08 01:06 30.11322 -81.28274 4961 ft 162 kts 347°
2026-05-08 01:06 30.12445 -81.28422 4959 ft 162 kts 347°
2026-05-08 01:06 30.13930 -81.28618 4954 ft 162 kts 347°
2026-05-08 01:06 30.14689 -81.28718 4954 ft 163 kts 347°
2026-05-08 01:07 30.15811 -81.28868 4953 ft 163 kts 347°
2026-05-08 01:07 30.16938 -81.29017 4953 ft 162 kts 347°
2026-05-08 01:07 30.18059 -81.29165 4951 ft 162 kts 347°
2026-05-08 01:07 30.19183 -81.29314 4942 ft 162 kts 347°
2026-05-08 01:08 30.20306 -81.29463 4943 ft 162 kts 347°
2026-05-08 01:08 30.21426 -81.29611 4942 ft 162 kts 347°
2026-05-08 01:08 30.22548 -81.29760 4941 ft 162 kts 347°
2026-05-08 01:08 30.23671 -81.29908 4945 ft 162 kts 347°
2026-05-08 01:09 30.24791 -81.30057 4943 ft 162 kts 347°
2026-05-08 01:09 30.25908 -81.30205 4942 ft 162 kts 347°
2026-05-08 01:09 30.27029 -81.30354 4943 ft 162 kts 347°
2026-05-08 01:09 30.28148 -81.30503 4943 ft 162 kts 347°
2026-05-08 01:10 30.29267 -81.30651 4945 ft 162 kts 346°
2026-05-08 01:10 30.30387 -81.30799 4941 ft 162 kts 347°
2026-05-08 01:10 30.31507 -81.30948 4944 ft 162 kts 347°
2026-05-08 01:10 30.32623 -81.31096 4946 ft 161 kts 346°
2026-05-08 01:11 30.33740 -81.31245 4945 ft 162 kts 346°
2026-05-08 01:11 30.34861 -81.31394 4947 ft 162 kts 346°
2026-05-08 01:11 30.35964 -81.31540 4946 ft 162 kts 346°
2026-05-08 01:11 30.37082 -81.31689 4949 ft 162 kts 346°
2026-05-08 01:12 30.38215 -81.31840 4947 ft 162 kts 346°
2026-05-08 01:12 30.39333 -81.31989 4949 ft 161 kts 346°
2026-05-08 01:12 30.40435 -81.32135 4945 ft 161 kts 346°
2026-05-08 01:12 30.41550 -81.32284 4945 ft 162 kts 346°
2026-05-08 01:13 30.42669 -81.32433 4946 ft 162 kts 346°
2026-05-08 01:13 30.43786 -81.32581 4944 ft 162 kts 346°
2026-05-08 01:13 30.44902 -81.32729 4943 ft 161 kts 346°
2026-05-08 01:13 30.46033 -81.32879 4942 ft 161 kts 346°
2026-05-08 01:14 30.47144 -81.33028 4943 ft 161 kts 346°
2026-05-08 01:14 30.48253 -81.33176 4943 ft 160 kts 346°
2026-05-08 01:14 30.49345 -81.33321 4944 ft 160 kts 346°
2026-05-08 01:14 30.50454 -81.33469 4942 ft 160 kts 346°
2026-05-08 01:15 30.51562 -81.33616 4957 ft 160 kts 346°
2026-05-08 01:15 30.52669 -81.33764 4959 ft 161 kts 346°
2026-05-08 01:15 30.53781 -81.33912 4959 ft 161 kts 345°
2026-05-08 01:15 30.54890 -81.34061 4957 ft 160 kts 345°
2026-05-08 01:16 30.55995 -81.34208 4959 ft 160 kts 345°
2026-05-08 01:16 30.57099 -81.34355 4960 ft 160 kts 345°
2026-05-08 01:16 30.58206 -81.34503 4964 ft 160 kts 345°
2026-05-08 01:16 30.59330 -81.34653 4963 ft 161 kts 345°
2026-05-08 01:17 30.60439 -81.34802 4962 ft 160 kts 345°
2026-05-08 01:17 30.61549 -81.34949 4961 ft 160 kts 345°
2026-05-08 01:17 30.62656 -81.35097 4964 ft 160 kts 345°
2026-05-08 01:17 30.63763 -81.35246 4965 ft 161 kts 345°
2026-05-08 01:18 30.64878 -81.35395 4963 ft 162 kts 345°
2026-05-08 01:18 30.65998 -81.35545 4960 ft 162 kts 345°
2026-05-08 01:18 30.67113 -81.35694 4959 ft 161 kts 345°
2026-05-08 01:18 30.68228 -81.35843 4959 ft 161 kts 345°
2026-05-08 01:19 30.69341 -81.35991 4959 ft 161 kts 345°
2026-05-08 01:19 30.70454 -81.36140 4960 ft 161 kts 345°
2026-05-08 01:19 30.71566 -81.36289 4960 ft 161 kts 345°
2026-05-08 01:19 30.72675 -81.36437 4957 ft 160 kts 345°
2026-05-08 01:20 30.73783 -81.36586 4956 ft 160 kts 345°
2026-05-08 01:20 30.74888 -81.36735 4957 ft 160 kts 344°
2026-05-08 01:20 30.75978 -81.36880 4952 ft 160 kts 344°
2026-05-08 01:20 30.77079 -81.37028 4956 ft 159 kts 344°
2026-05-08 01:21 30.78175 -81.37177 4954 ft 158 kts 344°
2026-05-08 01:21 30.79263 -81.37323 4954 ft 157 kts 344°
2026-05-08 01:21 30.80351 -81.37469 4954 ft 158 kts 344°
2026-05-08 01:21 30.81442 -81.37615 4951 ft 158 kts 344°
2026-05-08 01:22 30.82532 -81.37762 4950 ft 158 kts 344°
2026-05-08 01:22 30.83621 -81.37907 4946 ft 158 kts 344°
2026-05-08 01:22 30.84710 -81.38054 4948 ft 158 kts 344°
2026-05-08 01:22 30.85802 -81.38200 4947 ft 158 kts 343°
2026-05-08 01:23 30.86893 -81.38347 4942 ft 158 kts 343°
2026-05-08 01:23 30.87984 -81.38493 4932 ft 158 kts 343°
2026-05-08 01:23 30.89074 -81.38640 4934 ft 158 kts 344°
2026-05-08 01:23 30.90169 -81.38788 4937 ft 158 kts 344°
2026-05-08 01:24 30.91267 -81.38935 4935 ft 159 kts 344°
2026-05-08 01:24 30.92363 -81.39083 4935 ft 159 kts 343°
2026-05-08 01:24 30.93462 -81.39231 4933 ft 159 kts 344°
2026-05-08 01:24 30.94562 -81.39379 4935 ft 159 kts 344°
2026-05-08 01:25 30.95665 -81.39528 4934 ft 159 kts 344°
2026-05-08 01:25 30.96764 -81.39675 4935 ft 159 kts 344°
2026-05-08 01:25 30.97860 -81.39822 4935 ft 158 kts 343°
2026-05-08 01:25 30.98956 -81.39971 4936 ft 159 kts 344°
2026-05-08 01:26 31.00060 -81.40119 4938 ft 160 kts 343°
2026-05-08 01:26 31.01165 -81.40269 4936 ft 160 kts 344°
2026-05-08 01:26 31.02269 -81.40417 4935 ft 159 kts 343°
2026-05-08 01:26 31.03371 -81.40566 4934 ft 160 kts 344°
2026-05-08 01:27 31.04477 -81.40715 4937 ft 160 kts 344°
2026-05-08 01:27 31.05584 -81.40864 4937 ft 160 kts 344°
2026-05-08 01:27 31.06687 -81.41012 4936 ft 159 kts 343°
2026-05-08 01:27 31.07785 -81.41161 4934 ft 159 kts 343°
2026-05-08 01:28 31.08882 -81.41309 4937 ft 159 kts 343°
2026-05-08 01:28 31.09983 -81.41458 4938 ft 159 kts 343°
2026-05-08 01:28 31.11084 -81.41606 4940 ft 159 kts 343°
2026-05-08 01:28 31.12185 -81.41755 4936 ft 159 kts 343°
2026-05-08 01:29 31.13281 -81.41903 4936 ft 158 kts 343°
2026-05-08 01:29 31.14373 -81.42050 4936 ft 157 kts 343°
2026-05-08 01:29 31.15453 -81.42196 4934 ft 157 kts 343°
2026-05-08 01:29 31.16541 -81.42344 4937 ft 158 kts 343°
2026-05-08 01:30 31.17634 -81.42492 4936 ft 158 kts 343°
2026-05-08 01:30 31.18726 -81.42639 4935 ft 157 kts 342°
2026-05-08 01:30 31.19809 -81.42785 4937 ft 156 kts 342°
2026-05-08 01:30 31.20888 -81.42931 4945 ft 156 kts 342°
2026-05-08 01:31 31.21968 -81.43078 4945 ft 157 kts 343°
2026-05-08 01:31 31.23056 -81.43225 4943 ft 158 kts 342°
2026-05-08 01:31 31.24148 -81.43373 4948 ft 158 kts 342°
2026-05-08 01:31 31.25213 -81.43499 4946 ft 162 kts 348°
2026-05-08 01:32 31.26358 -81.43268 4946 ft 170 kts
2026-05-08 01:32 31.27504 -81.42925 4948 ft 170 kts
2026-05-08 01:32 31.28653 -81.42612 4948 ft 169 kts
2026-05-08 01:32 31.29802 -81.42310 4950 ft 169 kts
2026-05-08 01:33 31.30951 -81.42007 4948 ft 169 kts
2026-05-08 01:33 31.32101 -81.41703 4947 ft 169 kts
2026-05-08 01:33 31.33248 -81.41399 4946 ft 169 kts
2026-05-08 01:33 31.34393 -81.41096 4945 ft 169 kts
2026-05-08 01:34 31.35538 -81.40793 4942 ft 169 kts
2026-05-08 01:34 31.36682 -81.40490 4946 ft 168 kts
2026-05-08 01:34 31.37825 -81.40188 4946 ft 169 kts
2026-05-08 01:34 31.38970 -81.39884 4944 ft 169 kts
2026-05-08 01:35 31.40113 -81.39581 4942 ft 168 kts
2026-05-08 01:35 31.41259 -81.39278 4941 ft 169 kts
2026-05-08 01:35 31.42410 -81.38973 4942 ft 170 kts
2026-05-08 01:35 31.43545 -81.38672 4941 ft 169 kts
2026-05-08 01:36 31.44693 -81.38367 4942 ft 170 kts
2026-05-08 01:36 31.45851 -81.38061 4939 ft 171 kts
2026-05-08 01:36 31.47007 -81.37754 4939 ft 170 kts
2026-05-08 01:36 31.48160 -81.37447 4938 ft 169 kts
2026-05-08 01:37 31.49303 -81.37143 4934 ft 168 kts
2026-05-08 01:37 31.50445 -81.36840 4937 ft 168 kts
2026-05-08 01:37 31.51582 -81.36538 4935 ft 167 kts
2026-05-08 01:37 31.52709 -81.36238 4936 ft 166 kts
2026-05-08 01:38 31.53839 -81.35939 4937 ft 167 kts
2026-05-08 01:38 31.54976 -81.35637 4934 ft 168 kts
2026-05-08 01:38 31.56113 -81.35334 4929 ft 167 kts
2026-05-08 01:38 31.57247 -81.35033 4933 ft 167 kts
2026-05-08 01:39 31.58384 -81.34730 4932 ft 168 kts
2026-05-08 01:39 31.59522 -81.34427 4920 ft 168 kts
2026-05-08 01:39 31.60657 -81.34124 4922 ft 167 kts
2026-05-08 01:39 31.61790 -81.33823 4924 ft 167 kts
2026-05-08 01:40 31.62928 -81.33521 4926 ft 168 kts
2026-05-08 01:40 31.64066 -81.33218 4925 ft 168 kts
2026-05-08 01:40 31.65209 -81.32912 4925 ft 168 kts
2026-05-08 01:40 31.66352 -81.32609 4923 ft 168 kts
2026-05-08 01:41 31.67496 -81.32304 4920 ft 168 kts
2026-05-08 01:41 31.68637 -81.32000 4914 ft 168 kts
2026-05-08 01:41 31.69777 -81.31695 4920 ft 168 kts
2026-05-08 01:41 31.70911 -81.31392 4919 ft 167 kts
2026-05-08 01:42 31.72041 -81.31091 4922 ft 166 kts
2026-05-08 01:42 31.73173 -81.30755 4919 ft 168 kts
2026-05-08 01:42 31.74299 -81.30366 4917 ft 169 kts
2026-05-08 01:42 31.75424 -81.29981 4919 ft 168 kts
2026-05-08 01:43 31.76547 -81.29602 4919 ft 168 kts
2026-05-08 01:43 31.77677 -81.29222 4914 ft 169 kts
2026-05-08 01:43 31.78806 -81.28841 4917 ft 169 kts
2026-05-08 01:43 31.79933 -81.28462 4912 ft 170 kts
2026-05-08 01:44 31.81078 -81.28076 4911 ft 172 kts
2026-05-08 01:44 31.82237 -81.27684 4911 ft 172 kts
2026-05-08 01:44 31.83385 -81.27297 4909 ft 171 kts
2026-05-08 01:44 31.84523 -81.26913 4906 ft 170 kts
2026-05-08 01:45 31.85659 -81.26529 4907 ft 170 kts
2026-05-08 01:45 31.86803 -81.26143 4903 ft 171 kts
2026-05-08 01:45 31.87941 -81.25758 4901 ft 170 kts
2026-05-08 01:45 31.89062 -81.25379 4905 ft 170 kts
2026-05-08 01:46 31.90216 -81.24991 4899 ft 171 kts
2026-05-08 01:46 31.91347 -81.24608 4899 ft 171 kts
2026-05-08 01:46 31.92483 -81.24222 4901 ft 170 kts
2026-05-08 01:46 31.93618 -81.23839 4895 ft 169 kts
2026-05-08 01:47 31.94381 -81.23581 4900 ft 169 kts
2026-05-08 01:47 31.95879 -81.23075 4899 ft 170 kts
2026-05-08 01:47 31.96652 -81.22813 4903 ft 170 kts
2026-05-08 01:48 31.99272 -81.21925 4904 ft 169 kts
2026-05-08 01:48 32.00039 -81.21666 4903 ft 170 kts
2026-05-08 01:48 32.01179 -81.21280 4901 ft 170 kts
2026-05-08 01:48 32.02304 -81.20898 4899 ft 169 kts
2026-05-08 01:49 32.03447 -81.20511 4901 ft 169 kts
2026-05-08 01:49 32.04576 -81.20128 4903 ft 170 kts
2026-05-08 01:49 32.05694 -81.19749 4895 ft 169 kts
2026-05-08 01:49 32.06799 -81.19374 4934 ft 168 kts
2026-05-08 01:50 32.07942 -81.18984 4935 ft 169 kts
2026-05-08 01:50 32.09077 -81.18547 4940 ft 170 kts
2026-05-08 01:50 32.10188 -81.18042 4938 ft 171 kts 13°
2026-05-08 01:50 32.11290 -81.17469 4862 ft 176 kts 16°
2026-05-08 01:51 32.12395 -81.16825 4768 ft 179 kts 19°
2026-05-08 01:51 32.13469 -81.16126 4673 ft 181 kts 21°
2026-05-08 01:51 32.14561 -81.15338 4574 ft 183 kts 24°
2026-05-08 01:51 32.15617 -81.14499 4479 ft 184 kts 27°
2026-05-08 01:52 32.16657 -81.13594 4331 ft 187 kts 30°
2026-05-08 01:52 32.17677 -81.12628 4180 ft 189 kts 32°
2026-05-08 01:52 32.18668 -81.11608 4034 ft 188 kts 34°
2026-05-08 01:52 32.19759 -81.10871 3876 ft 175 kts
2026-05-08 01:53 32.20911 -81.10845 3717 ft 160 kts 336°
2026-05-08 01:53 32.21986 -81.11110 3570 ft 167 kts 351°
2026-05-08 01:53 32.23166 -81.10970 3431 ft 168 kts 357°
2026-05-08 01:53 32.24239 -81.10817 3168 ft 139 kts 345°
2026-05-08 01:54 32.24969 -81.11345 2852 ft 126 kts 296°
2026-05-08 01:54 32.25000 -81.12391 2430 ft 139 kts 251°
2026-05-08 01:54 32.24488 -81.13348 2279 ft 139 kts 244°
2026-05-08 01:54 32.23980 -81.14339 2157 ft 142 kts 245°
2026-05-08 01:55 32.23495 -81.15346 2092 ft 139 kts 247°
2026-05-08 01:55 32.23060 -81.16304 2030 ft 127 kts 248°
2026-05-08 01:55 32.22630 -81.17226 1837 ft 128 kts 246°
2026-05-08 01:55 32.22226 -81.18141 1741 ft 122 kts 250°
2026-05-08 01:56 32.21845 -81.19007 1705 ft 118 kts 241°
2026-05-08 01:56 32.21180 -81.19626 1721 ft 133 kts 213°
2026-05-08 01:56 32.20310 -81.19936 1661 ft 142 kts 200°
2026-05-08 01:56 32.19338 -81.20034 1449 ft 136 kts 187°
2026-05-08 01:57 32.18461 -81.19990 1236 ft 127 kts 187°
2026-05-08 01:57 32.17648 -81.19978 1041 ft 131 kts 190°
2026-05-08 01:57 32.16817 -81.20004 852 ft 116 kts 188°
2026-05-08 01:57 32.16033 -81.20019 679 ft 102 kts 185°
2026-05-08 01:58 32.15428 -81.19988 548 ft 83 kts 187°
2026-05-08 01:58 32.14880 -81.19998 443 ft 76 kts 190°
2026-05-08 01:58 32.14379 -81.20005 351 ft 77 kts 188°
2026-05-08 01:58 32.13832 -81.20010 194 ft 76 kts 186°
2026-05-08 01:59 32.13354 -81.20012 50 ft 64 kts 184°
2026-05-08 01:59 32.13004 -81.20012 45 ft 35 kts 181°
2026-05-08 01:59 32.12890 -81.20009 41 ft 0 kts 172°